Hoquiam, WA
on Saturday, November 10, 2012

Saturday
Previous Day Next Day
Daily Summary
 ActualAverageRecord
Temperature
Mean Temperature °F 47°F  
Max Temperature 46°F 52°F 61°F (1976)
Min Temperature 30°F 41°F 30°F (2012)
Degree Days
Heating Degree Days 27 18  
Month to date heating degree days 171  
Cooling Degree Days 0 0  
Month to date cooling degree days 0  
Year to date cooling degree days 23  
Moisture
Dew Point 32°F   
Average Humidity 80    
Maximum Humidity 96    
Minimum Humidity 56    
Precipitation
Precipitation 0.00 in 0.38 in 2.22 in (1995)
Month to date precipitation 3.54  
Year to date precipitation 49.96  
Wind
Wind Speed 5 mph   
Max Wind Speed 10 mph   
Max Gust Speed mph   
Visibility 9 miles   
Events     

Key: T is trace of precipitation, MM is missing value
Source: NWS Daily Summary
Time(PST)TemperatureDew PointHumidity Pressure Visibility Wind DirectionWind SpeedGust SpeedPrecipitationEvents Conditions
12:53 AM 32.0°F 30.9°F 96% 29.97 in 6.0 miles ENE 3.5 mph - N/A   Clear
1:53 AM 30.9°F 30.0°F 96% 29.99 in 6.0 miles ENE 3.5 mph - N/A   Scattered Clouds
2:53 AM 32.0°F 30.9°F 96% 29.99 in 7.0 miles NE 5.8 mph - N/A   Mostly Cloudy
3:53 AM 33.1°F 32.0°F 96% 30.00 in 8.0 miles ENE 3.5 mph - N/A   Overcast
4:53 AM 34.0°F 32.0°F 92% 30.02 in 9.0 miles NE 4.6 mph - N/A   Overcast
5:53 AM 34.0°F 33.1°F 96% 30.03 in 9.0 miles East 5.8 mph - N/A   Overcast
6:53 AM 35.1°F 32.0°F 89% 30.04 in 10.0 miles NE 5.8 mph - N/A   Overcast
7:53 AM 34.0°F 32.0°F 92% 30.06 in 9.0 miles ENE 5.8 mph - N/A   Overcast
8:53 AM 37.0°F 32.0°F 82% 30.08 in 10.0 miles NE 5.8 mph - N/A   Mostly Cloudy
9:53 AM 41.0°F 32.0°F 70% 30.10 in 10.0 miles NE 6.9 mph - N/A   Partly Cloudy
10:53 AM 43.0°F 34.0°F 71% 30.12 in 10.0 miles ENE 5.8 mph - N/A   Scattered Clouds
11:53 AM 44.1°F 34.0°F 68% 30.12 in 10.0 miles East 8.1 mph - N/A   Clear
12:53 PM 46.0°F 30.9°F 56% 30.12 in 10.0 miles ENE 10.4 mph - N/A   Clear
1:53 PM 46.9°F 34.0°F 61% 30.12 in 10.0 miles East 10.4 mph - N/A   Clear
2:53 PM 46.9°F 34.0°F 61% 30.13 in 10.0 miles East 5.8 mph - N/A   Clear
3:53 PM 46.0°F 30.9°F 56% 30.14 in 10.0 miles East 9.2 mph - N/A   Mostly Cloudy
4:53 PM 42.1°F 32.0°F 67% 30.15 in 10.0 miles ENE 5.8 mph - N/A   Clear
5:53 PM 39.0°F 30.9°F 73% 30.17 in 10.0 miles NE 5.8 mph - N/A   Clear
6:53 PM 37.9°F 32.0°F 79% 30.18 in 10.0 miles NE 4.6 mph - N/A   Clear
7:53 PM 37.4°F 30.2°F 75% 30.17 in 10.0 miles ENE 3.5 mph - N/A   Clear
8:53 PM 35.6°F 30.2°F 81% 30.18 in 10.0 miles ENE 4.6 mph - N/A   Clear
9:53 PM 36.0°F 32.0°F 86% 30.19 in 10.0 miles ENE 5.8 mph - N/A   Scattered Clouds
10:53 PM 35.1°F 32.0°F 89% 30.19 in 10.0 miles ENE 6.9 mph - N/A   Partly Cloudy
11:53 PM 35.1°F 32.0°F 89% 30.20 in 10.0 miles ENE 8.1 mph - N/A   Mostly Cloudy
Moon Phase
Nov. 10 Nov. 13 Nov. 20 Nov. 28 Dec. 06
Sunrise:07:12 AM (PST) Moon Rise:03:11 AM (PST)11/10
Sunset:04:46 PM (PST) Moon Set:02:46 PM (PST)11/10

Copyright © 2014 The Weather Underground, Inc.